[[{"header":{"parameterUnit":"m.s-1","parameterCategory":1,"la1":30.2991,"la2":30.254,"lo1":-89.0895,"lo2":-89.0444,"dy":0.0017,"dx":0.0017,"nx":28,"ny":28,"refTime":"2025-11-29T09:00:00:Z","depth":0,"parameterNumber":2,"parameterNumberName":"U-component_of_WINDS"},"data":[0,0,0,0,0,0,0,0,0,0,0,0,0,0,0,0,0,0,0,0,0,0,0,0,0,0,0,0,0,0,0,0,0,0,0,0,0,0,0,0,0,0,0,0,0,0,0,0,0,0,0,0,0,0,0,0,0,0,-4.228,-4.2281,0,-4.2403,-4.2404,-4.2406,-4.2338,-4.2334,-4.2331,-4.2328,-4.2455,-4.2461,-4.2468,0,0,0,0,0,0,0,0,0,0,0,0,0,-4.1986,-4.1992,-4.228,-4.2281,-4.2283,-4.2403,-4.2404,-4.2406,-4.2338,-4.2334,-4.233,-4.2326,-4.2453,-4.2461,-4.2469,0,0,0,0,0,0,0,0,0,0,0,0,0,-4.2112,-4.1994,-4.2279,-4.2263,-4.2263,-4.2402,-4.2404,-4.2406,-4.2339,-4.2334,-4.2329,-4.2324,-4.245,-4.246,-4.247,-4.2632,0,0,-4.25,-4.2504,0,0,0,0,0,0,0,0,-4.2105,-4.2123,-4.2264,-4.2265,-4.2265,-4.235,-4.2347,-4.2482,-4.2341,-4.231,-4.2328,-4.2322,-4.2424,-4.2436,-4.247,-4.2638,-4.2643,-4.2501,-4.2506,-4.2511,-4.2513,0,0,0,0,0,0,0,-4.2096,-4.2117,-4.2328,-4.2266,-4.2267,-4.225,-4.2262,-4.2373,-4.2394,-4.2313,-4.2308,-4.2323,-4.2423,-4.2461,-4.2473,-4.2645,-4.25,-4.2509,-4.2515,-4.2519,-4.2952,-4.2958,0,0,0,0,0,0,-4.2089,-4.211,-4.2324,-4.2332,-4.2171,-4.226,-4.2273,-4.2328,-4.2393,-4.2398,-4.2328,-4.232,-4.2447,-4.2461,-4.2477,-4.2672,-4.2511,-4.252,-4.2525,-4.2947,-4.2954,-4.296,0,0,0,0,0,0,-4.2082,-4.2108,-4.2319,-4.222,-4.2246,-4.227,-4.2332,-4.2333,-4.237,-4.2404,-4.2408,-4.2362,-4.2443,-4.2463,-4.2594,-4.2675,-4.2524,-4.2533,-4.294,-4.2949,-4.2957,-4.3063,0,0,0,0,0,0,-4.2074,-4.2107,-4.2168,-4.2222,-4.2251,-4.2435,-4.2337,-4.2339,-4.2387,-4.2378,-4.2437,-4.2442,-4.2441,-4.258,-4.2604,-4.2686,-4.2541,-4.2933,-4.2944,-4.2954,-4.3053,-4.3074,-4.3093,0,0,0,0,0,-4.2064,-4.2194,-4.2172,-4.2198,-4.2329,-4.244,-4.2456,-4.2451,-4.2394,-4.2457,-4.2478,-4.2441,-4.2662,-4.2594,-4.262,-4.2707,-4.2928,-4.2941,-4.2953,-4.3043,-4.307,-4.3092,0,0,0,0,0,0,-4.215,-4.22,-4.2177,-4.2328,-4.238,-4.2428,-4.2507,-4.2479,-4.2549,-4.2538,-4.2529,-4.2543,-4.2679,-4.2706,-4.2628,-4.2867,-4.2786,-4.2805,-4.2846,-4.2871,-4.2891,-4.2883,-4.2549,0,0,0,0,0,-4.2186,-4.2271,-4.2311,-4.244,-4.2467,-4.2483,-4.253,-4.2522,-4.2576,-4.2598,-4.2629,-4.2683,-4.2765,-4.2819,-4.2896,-4.3055,-4.3068,-4.3128,-4.3148,-4.3164,-4.3181,-4.3268,-4.3295,-4.3001,-4.3001,-4.3001,0,0,-4.2262,-4.23,-4.2355,-4.2458,-4.2497,-4.2586,-4.2502,-4.2599,-4.2665,-4.2613,-4.2739,-4.2763,-4.2823,-4.2969,-4.3034,-4.2995,-4.3265,-4.318,-4.3193,-4.3201,-4.3284,-4.3312,-4.3336,-4.301,-4.3008,-4.3007,0,0,-4.2447,-4.2484,-4.2596,-4.2637,-4.2697,-4.2706,-4.2733,-4.2786,-4.28,-4.2926,-4.2888,-4.2966,-4.3107,-4.3151,-4.3192,-4.3393,-4.3361,-4.3418,-4.3524,-4.3609,-4.3632,-4.3652,-4.3725,-4.3751,-4.3434,-4.3434,-4.3434,0,-4.2534,-4.2666,-4.2657,-4.2758,-4.2804,-4.276,-4.2873,-4.2914,-4.2997,-4.303,-4.2984,-4.316,-4.3197,-4.3353,-4.3401,-4.3435,-4.3467,-4.3412,-4.3629,-4.365,-4.3669,-4.3738,-4.3765,-4.3441,-4.344,-4.3439,-4.3439,0,-4.2771,-4.2864,-4.2947,-4.3028,-4.3083,-4.319,-4.3197,-4.3255,-4.3241,-4.3255,-4.3384,-4.3426,-4.3511,-4.3547,-4.3535,-4.3702,-4.3675,-4.3629,-4.3548,-4.3704,-4.3769,-4.3795,-4.345,-4.3448,-4.3446,-4.3444,0,0,-4.3016,-4.3089,-4.312,-4.3156,-4.3219,-4.329,-4.3395,-4.3477,-4.3528,-4.3586,-4.3674,-4.3793,-4.3751,-4.3798,-4.3789,-4.3864,-4.4021,-4.3809,-4.381,-4.3848,-4.4209,-4.4245,-4.4276,-4.3999,-4.4004,-4.4008,-4.4204,0,-4.3206,-4.3389,-4.3382,-4.3553,-4.3638,-4.3597,-4.3687,-4.3736,-4.3752,-4.3827,-4.3843,-4.3929,-4.3866,-4.3894,-4.3965,-4.3987,-4.4094,-4.3972,-4.4082,-4.4086,-4.4071,-4.4309,-4.4347,-4.4531,-4.423,-4.4234,-4.4237,0,-4.3453,-4.3519,-4.3698,-4.3748,-4.3784,-4.3866,-4.3941,-4.4013,-4.4067,-4.4073,-4.4125,-4.4104,-4.421,-4.4124,-4.4271,-4.4189,-4.4233,-4.425,-4.4257,-4.4269,-4.4173,-4.4329,-4.4589,-4.4617,-4.4277,-4.4274,-4.4271,0,-4.3615,-4.3749,-4.3873,-4.3905,-4.3966,-4.4025,-4.4054,-4.4102,-4.4153,-4.4218,-4.4251,-4.4328,-4.4371,-4.4431,-4.4432,-4.4369,-4.4581,-4.4495,-4.459,-4.459,-4.4638,-4.4636,-4.4911,-4.4664,-4.4663,-4.4663,-4.4662,0,-4.3829,-4.3941,-4.3947,-4.4024,-4.4148,-4.4139,-4.4262,-4.4284,-4.4328,-4.4409,-4.4376,-4.4453,-4.4449,-4.4526,-4.4528,-4.465,-4.4669,-4.4677,-4.4677,-4.4682,-4.4681,-4.4712,-4.47,-4.467,-4.4668,-4.4667,-4.4666,0,-4.4033,-4.4041,-4.4174,-4.4221,-4.4235,-4.4325,-4.4365,-4.4438,-4.4449,-4.4552,-4.4576,-4.4595,-4.4684,-4.4691,-4.4794,-4.4795,-4.4944,-4.4928,-4.4926,-4.4924,-4.5019,-4.5011,-4.5326,-4.5367,-4.5091,-4.5094,-4.5096,0,-4.417,-4.4255,-4.431,-4.4362,-4.4394,-4.4477,-4.4528,-4.4522,-4.4576,-4.4644,-4.4709,-4.4795,-4.4864,-4.5009,-4.5033,-4.5112,-4.5099,-4.5204,-4.5111,-4.5113,-4.5103,-4.5099,-4.5108,-4.5223,-4.5226,-4.5228,-4.523,0,-4.4413,-4.4413,-4.4487,-4.4564,-4.4625,-4.4685,-4.474,-4.4784,-4.4785,-4.4848,-4.4939,-4.4992,-4.5098,-4.5184,-4.5261,-4.529,-4.5262,-4.5259,-4.5285,-4.5292,-4.5288,-4.5293,-4.4977,-4.5252,-4.525,-4.5249,-4.5247,-4.5246,-4.4589,-4.4663,-4.4714,-4.4798,-4.4838,-4.4891,-4.4962,-4.4983,-4.5058,-4.5144,-4.5135,-4.5236,-4.5288,-4.5388,-4.5423,-4.5502,-4.5467,-4.5505,-4.5515,-4.5525,-4.5536,-4.5274,-4.5516,-4.5515,-4.5515,-4.5514,-4.5514,0,-4.4833,-4.4863,-4.494,-4.5018,-4.5085,-4.505,-4.5109,-4.5167,-4.5256,-4.5306,-4.5375,-4.5479,-4.5563,-4.5592,-4.5673,-4.5731,-4.572,-4.5753,-4.575,-4.5757,-4.5562,-4.5532,-4.5761,-4.576,-4.576,-4.576,-4.576,-4.576,-4.4967,-4.509,-4.5096,-4.5239,-4.5268,-4.5367,-4.5404,-4.5452,-4.5492,-4.561,-4.5679,-4.5697,-4.5739,-4.5823,-4.5898,-4.5905,-4.5937,-4.5976,-4.5977,-4.5795,-4.5771,-4.5747,-4.5719,-4.5983,-4.5983,-4.6165,-4.6167,-4.6168]},{"header":{"parameterUnit":"m.s-1","parameterCategory":1,"la1":30.2991,"la2":30.254,"lo1":-89.0895,"lo2":-89.0444,"dy":0.0017,"dx":0.0017,"nx":28,"ny":28,"refTime":"2025-11-29T09:00:00:Z","depth":0,"parameterNumber":3,"parameterNumberName":"V-component_of_WINDS"},"data":[0,0,0,0,0,0,0,0,0,0,0,0,0,0,0,0,0,0,0,0,0,0,0,0,0,0,0,0,0,0,0,0,0,0,0,0,0,0,0,0,0,0,0,0,0,0,0,0,0,0,0,0,0,0,0,0,0,0,-6.2034,-6.2034,0,-6.2078,-6.2079,-6.2079,-6.2003,-6.2,-6.1998,-6.1995,-6.2038,-6.2041,-6.2045,0,0,0,0,0,0,0,0,0,0,0,0,0,-6.1878,-6.1882,-6.2034,-6.2034,-6.2035,-6.2078,-6.2079,-6.2079,-6.2004,-6.2,-6.1997,-6.1994,-6.2037,-6.2041,-6.2045,0,0,0,0,0,0,0,0,0,0,0,0,0,-6.1937,-6.1883,-6.2033,-6.2002,-6.2,-6.2078,-6.2079,-6.2079,-6.2004,-6.2,-6.1996,-6.1993,-6.2035,-6.204,-6.2046,-6.2155,0,0,-6.2062,-6.2064,0,0,0,0,0,0,0,0,-6.1933,-6.1942,-6.2006,-6.2004,-6.2002,-6.2031,-6.2039,-6.2105,-6.2005,-6.2002,-6.1995,-6.1991,-6.2039,-6.2043,-6.206,-6.2157,-6.2159,-6.2062,-6.2065,-6.2068,-6.2069,0,0,0,0,0,0,0,-6.1929,-6.194,-6.2051,-6.2007,-6.2005,-6.1984,-6.1988,-6.2051,-6.2041,-6.2002,-6.1997,-6.2003,-6.2037,-6.2055,-6.206,-6.216,-6.2062,-6.2067,-6.207,-6.2072,-6.2347,-6.2351,0,0,0,0,0,0,-6.193,-6.1937,-6.205,-6.2052,-6.1958,-6.199,-6.1995,-6.2026,-6.2041,-6.2039,-6.2007,-6.2,-6.2048,-6.2054,-6.2062,-6.2189,-6.2068,-6.2073,-6.2076,-6.2343,-6.2348,-6.2352,0,0,0,0,0,0,-6.1927,-6.1941,-6.2048,-6.1993,-6.2005,-6.1997,-6.2032,-6.2029,-6.2047,-6.2044,-6.2041,-6.2028,-6.2045,-6.2054,-6.2132,-6.219,-6.2075,-6.208,-6.2338,-6.2344,-6.235,-6.2447,0,0,0,0,0,0,-6.1923,-6.194,-6.1983,-6.1995,-6.2009,-6.2119,-6.2036,-6.2032,-6.2057,-6.2048,-6.2063,-6.2062,-6.2043,-6.2125,-6.2138,-6.2195,-6.2084,-6.2333,-6.2341,-6.2348,-6.2439,-6.2456,-6.2471,0,0,0,0,0,-6.1917,-6.2008,-6.1985,-6.1999,-6.2062,-6.2123,-6.2131,-6.2108,-6.2062,-6.2104,-6.2101,-6.2061,-6.2182,-6.2134,-6.2147,-6.2207,-6.2329,-6.2338,-6.2347,-6.2432,-6.2453,-6.247,0,0,0,0,0,0,-6.2002,-6.2009,-6.1984,-6.2082,-6.2102,-6.211,-6.2162,-6.2131,-6.2165,-6.2155,-6.2125,-6.2129,-6.2212,-6.2218,-6.2164,-6.2313,-6.2247,-6.226,-6.2307,-6.2326,-6.2342,-6.2339,-6.2088,0,0,0,0,0,-6.2032,-6.2082,-6.2085,-6.2171,-6.2183,-6.2171,-6.2197,-6.2177,-6.2197,-6.2205,-6.2209,-6.2229,-6.227,-6.2299,-6.2337,-6.2439,-6.244,-6.2487,-6.2503,-6.2516,-6.2527,-6.2579,-6.2599,-6.2383,-6.2383,-6.2382,0,0,-6.2095,-6.2105,-6.2138,-6.2188,-6.2202,-6.2253,-6.2179,-6.2236,-6.2273,-6.2214,-6.2287,-6.2291,-6.231,-6.2401,-6.244,-6.2407,-6.2587,-6.2528,-6.2538,-6.2542,-6.2591,-6.2611,-6.263,-6.2389,-6.2388,-6.2387,0,0,-6.2234,-6.2248,-6.232,-6.2335,-6.2357,-6.2349,-6.2366,-6.2379,-6.2379,-6.2453,-6.2408,-6.2451,-6.2525,-6.254,-6.2558,-6.2702,-6.2666,-6.2716,-6.2798,-6.285,-6.2867,-6.2882,-6.2932,-6.295,-6.2727,-6.2727,-6.2727,0,-6.2309,-6.2385,-6.2361,-6.2421,-6.2443,-6.2393,-6.2464,-6.248,-6.2513,-6.2529,-6.2492,-6.2582,-6.2592,-6.2684,-6.272,-6.2736,-6.2753,-6.2713,-6.2867,-6.2881,-6.2895,-6.2942,-6.2961,-6.2733,-6.2732,-6.2731,-6.2731,0,-6.2475,-6.2528,-6.2584,-6.2618,-6.2646,-6.2712,-6.2696,-6.2728,-6.2706,-6.2701,-6.2775,-6.2785,-6.2825,-6.2845,-6.2824,-6.2934,-6.2913,-6.2872,-6.2805,-6.2922,-6.2966,-6.2984,-6.2741,-6.2739,-6.2737,-6.2736,0,0,-6.267,-6.2689,-6.2709,-6.2723,-6.2743,-6.2783,-6.2846,-6.2885,-6.2912,-6.2936,-6.2987,-6.305,-6.3012,-6.3032,-6.3012,-6.3057,-6.3169,-6.301,-6.301,-6.3038,-6.3288,-6.3318,-6.334,-6.3145,-6.3149,-6.3151,-6.3286,0,-6.2807,-6.2916,-6.2895,-6.3001,-6.3049,-6.3001,-6.3055,-6.3072,-6.3069,-6.3108,-6.3103,-6.3148,-6.3095,-6.3107,-6.315,-6.3146,-6.3218,-6.3136,-6.319,-6.3192,-6.3186,-6.3363,-6.3395,-6.3522,-6.3303,-6.3306,-6.3308,0,-6.2983,-6.3014,-6.3125,-6.3136,-6.3155,-6.3205,-6.3238,-6.3276,-6.3294,-6.3288,-6.331,-6.3282,-6.3342,-6.3275,-6.3357,-6.3301,-6.3322,-6.3324,-6.3328,-6.3331,-6.3257,-6.3369,-6.3562,-6.358,-6.3335,-6.3333,-6.3331,0,-6.3112,-6.3182,-6.3256,-6.327,-6.3285,-6.3321,-6.3328,-6.3343,-6.3367,-6.3396,-6.3411,-6.3446,-6.3465,-6.3492,-6.3473,-6.3426,-6.3557,-6.3489,-6.3552,-6.3553,-6.3581,-6.358,-6.3778,-6.3597,-6.3597,-6.3596,-6.3596,0,-6.3267,-6.3336,-6.3314,-6.336,-6.3436,-6.341,-6.3485,-6.3487,-6.35,-6.3544,-6.3505,-6.3547,-6.3519,-6.3559,-6.3544,-6.3613,-6.3622,-6.3618,-6.3613,-6.3621,-6.3621,-6.3633,-6.3623,-6.3601,-6.36,-6.3599,-6.3599,0,-6.3424,-6.3412,-6.349,-6.3498,-6.3501,-6.3557,-6.3562,-6.3604,-6.3598,-6.3654,-6.3666,-6.3655,-6.3699,-6.3683,-6.373,-6.372,-6.3808,-6.3792,-6.3802,-6.3797,-6.3861,-6.3855,-6.4073,-6.41,-6.3903,-6.3905,-6.3907,0,-6.3523,-6.3575,-6.3589,-6.3616,-6.3627,-6.3671,-6.3696,-6.3672,-6.3699,-6.3722,-6.3761,-6.3802,-6.3833,-6.3906,-6.3902,-6.3937,-6.3921,-6.3995,-6.3926,-6.3931,-6.392,-6.3917,-6.3921,-6.4008,-6.4011,-6.4012,-6.4014,0,-6.3701,-6.3692,-6.3729,-6.3765,-6.3795,-6.3822,-6.3844,-6.3869,-6.3846,-6.3878,-6.3923,-6.3947,-6.3995,-6.4036,-6.4067,-6.4073,-6.404,-6.4036,-6.4052,-6.406,-6.4063,-6.4061,-6.3838,-6.4031,-6.4029,-6.4028,-6.4027,-6.4026,-6.3831,-6.3874,-6.389,-6.3932,-6.3947,-6.3969,-6.4008,-6.4007,-6.4044,-6.4082,-6.4065,-6.4117,-6.4131,-6.417,-6.4181,-6.422,-6.4191,-6.4215,-6.4221,-6.4227,-6.4234,-6.4058,-6.4226,-6.4225,-6.4225,-6.4224,-6.4224,0,-6.4004,-6.4012,-6.4052,-6.4085,-6.4118,-6.4084,-6.4107,-6.4137,-6.4183,-6.42,-6.4232,-6.4282,-6.4321,-6.432,-6.4355,-6.4387,-6.4372,-6.4396,-6.4393,-6.4395,-6.4259,-6.4241,-6.4408,-6.4408,-6.4408,-6.4408,-6.4408,-6.4407,-6.4099,-6.417,-6.4163,-6.424,-6.4247,-6.4298,-6.4314,-6.4333,-6.4346,-6.4405,-6.4437,-6.4436,-6.4445,-6.4481,-6.4515,-6.4513,-6.4527,-6.4557,-6.455,-6.4423,-6.4405,-6.4387,-6.437,-6.4561,-6.4561,-6.4682,-6.4683,-6.4684]}]]